[[{"header":{"parameterUnit":"m.s-1","parameterCategory":1,"la1":30.2992,"la2":30.254,"lo1":-89.0895,"lo2":-89.0443,"dy":0.0025,"dx":0.0025,"nx":19,"ny":19,"refTime":"2026-05-04T09:00:00:Z","depth":0,"parameterNumber":2,"parameterNumberName":"U-component_of_WINDS"},"data":[0,0,0,-0.3421,-0.3421,-0.3427,-0.3427,-0.3437,-0.3437,0,0,0,0,0,0,0,0,0,0,0,-0.3419,-0.342,-0.3421,-0.3421,-0.3427,-0.3427,-0.3437,-0.3437,0,0,0,0,0,0,0,0,0,0,0,-0.3419,-0.342,-0.342,-0.3421,-0.3427,-0.3427,-0.3437,-0.3432,0,0,0,0,0,0,0,0,0,0,-0.3425,-0.3424,-0.342,-0.342,-0.3421,-0.3427,-0.3427,-0.3431,-0.3432,-0.3435,0,-0.3436,0,-0.3437,-0.3437,-0.3437,0,0,0,-0.3421,-0.3424,-0.3425,-0.342,-0.3421,-0.3427,-0.3424,-0.3432,-0.3432,-0.3435,-0.3436,-0.3437,-0.3437,-0.3437,-0.3438,-0.3453,-0.3454,0,0,-0.3421,-0.3421,-0.3425,-0.3426,-0.3424,-0.3424,-0.3425,-0.3432,-0.3433,-0.3436,-0.3437,-0.3437,-0.3438,-0.3438,-0.3453,-0.3453,0,0,0,-0.342,-0.342,-0.3422,-0.3425,-0.3426,-0.3424,-0.3425,-0.3433,-0.3433,-0.3437,-0.3437,-0.3438,-0.3438,-0.3453,-0.3453,-0.3458,0,0,0,-0.342,-0.342,-0.3422,-0.3422,-0.3426,-0.3429,-0.3426,-0.3433,-0.3434,-0.3437,-0.3438,-0.3438,-0.3453,-0.3453,-0.3458,-0.346,0,0,0,-0.3419,-0.342,-0.3421,-0.3422,-0.3424,-0.3429,-0.343,-0.3433,-0.3434,-0.3437,-0.3438,-0.3453,-0.3453,-0.3457,-0.3459,-0.3464,0,0,0,-0.3418,-0.3424,-0.3421,-0.3428,-0.3424,-0.3432,-0.343,-0.3436,-0.344,-0.3438,-0.3453,-0.3453,-0.3457,-0.3459,-0.3464,-0.3469,-0.3471,0,0,-0.3426,-0.3425,-0.3429,-0.3426,-0.3435,-0.3431,-0.3441,-0.3444,-0.3444,-0.3451,-0.3451,-0.3458,-0.3459,-0.3464,-0.3482,-0.3483,0,0,0,-0.3431,-0.3434,-0.3437,-0.344,-0.3443,-0.3446,-0.3448,-0.345,-0.3455,-0.3447,-0.3461,-0.3462,-0.3465,-0.3467,-0.3468,-0.3471,-0.3454,-0.3454,-0.3454,-0.3441,-0.3442,-0.3449,-0.3451,-0.3455,-0.3458,-0.3461,-0.3464,-0.3463,-0.3467,-0.3468,-0.3479,-0.3481,-0.3482,-0.3485,-0.3471,-0.3471,-0.3471,-0.3471,-0.3452,-0.3456,-0.3457,-0.3463,-0.3465,-0.3471,-0.3475,-0.3474,-0.3481,-0.3477,-0.348,-0.3475,-0.3484,-0.3487,-0.3471,-0.3471,-0.3471,-0.3471,-0.3471,-0.3458,-0.346,-0.3463,-0.347,-0.3475,-0.3478,-0.3484,-0.3485,-0.3486,-0.3489,-0.3492,-0.3492,-0.3492,-0.349,-0.349,-0.349,-0.349,-0.3491,-0.3491,-0.3463,-0.3466,-0.3471,-0.3476,-0.348,-0.3485,-0.349,-0.3494,-0.3498,-0.3498,-0.3498,-0.3498,-0.3485,-0.3481,-0.3491,-0.3491,-0.3491,-0.3491,-0.3491,-0.3473,-0.3471,-0.3479,-0.3483,-0.3491,-0.3497,-0.3499,-0.3507,-0.3511,-0.3514,-0.3514,-0.3504,-0.3503,-0.3502,-0.3499,-0.3513,-0.3513,-0.3513,-0.3513,-0.3478,-0.3478,-0.3488,-0.3494,-0.35,-0.3504,-0.3514,-0.3519,-0.3524,-0.3527,-0.3525,-0.3522,-0.3521,-0.352,-0.3519,-0.3516,-0.3534,-0.3534,-0.3534,-0.3484,-0.3486,-0.3494,-0.3498,-0.3505,-0.3511,-0.3522,-0.353,-0.3535,-0.3535,-0.3529,-0.3528,-0.3523,-0.3521,-0.3519,-0.3517,-0.3512,0,0]},{"header":{"parameterUnit":"m.s-1","parameterCategory":1,"la1":30.2992,"la2":30.254,"lo1":-89.0895,"lo2":-89.0443,"dy":0.0025,"dx":0.0025,"nx":19,"ny":19,"refTime":"2026-05-04T09:00:00:Z","depth":0,"parameterNumber":3,"parameterNumberName":"V-component_of_WINDS"},"data":[0,0,0,2.6738,2.6736,2.6637,2.6637,2.6496,2.6495,0,0,0,0,0,0,0,0,0,0,0,2.676,2.6759,2.6738,2.6736,2.6637,2.6637,2.6497,2.6495,0,0,0,0,0,0,0,0,0,0,0,2.6761,2.676,2.6758,2.6735,2.6638,2.6637,2.6497,2.6576,0,0,0,0,0,0,0,0,0,0,2.6674,2.6689,2.676,2.6758,2.6735,2.6638,2.6637,2.658,2.6571,2.6535,0,2.6504,0,2.6497,2.6485,2.6484,0,0,0,2.674,2.6696,2.6676,2.6758,2.6734,2.6638,2.6683,2.6575,2.6565,2.6523,2.6502,2.6497,2.6495,2.6484,2.6483,2.6267,2.6266,0,0,2.6745,2.6739,2.6683,2.6669,2.6686,2.6686,2.668,2.6569,2.6545,2.6502,2.6494,2.6493,2.6483,2.6482,2.6269,2.6267,0,0,0,2.6758,2.6742,2.6725,2.6674,2.6658,2.6683,2.6676,2.655,2.6545,2.6493,2.6491,2.6482,2.648,2.627,2.6268,2.62,0,0,0,2.6761,2.675,2.6727,2.6722,2.666,2.6603,2.6659,2.6552,2.654,2.6492,2.6482,2.6479,2.6271,2.6269,2.6205,2.6168,0,0,0,2.6769,2.6751,2.6735,2.6722,2.668,2.6605,2.6594,2.655,2.6539,2.6484,2.6478,2.6272,2.6269,2.6209,2.6175,2.6107,0,0,0,2.6775,2.6676,2.6733,2.6623,2.6681,2.6566,2.6595,2.6509,2.6455,2.6481,2.6271,2.6268,2.6211,2.618,2.6112,2.6047,2.602,0,0,2.6647,2.6661,2.6596,2.6644,2.6517,2.6581,2.6443,2.6399,2.6399,2.6311,2.6306,2.6204,2.6176,2.6108,2.5878,2.5857,0,0,0,2.6553,2.6506,2.6474,2.6423,2.6388,2.6353,2.6331,2.6315,2.624,2.6354,2.6163,2.6146,2.6107,2.6076,2.6057,2.6022,2.6255,2.6255,2.6255,2.636,2.6367,2.6259,2.6254,2.6203,2.6181,2.614,2.6113,2.6135,2.6089,2.6062,2.5922,2.5885,2.5872,2.5835,2.6031,2.6031,2.6031,2.603,2.617,2.6103,2.6135,2.6041,2.6048,2.5968,2.5943,2.596,2.5885,2.5943,2.5909,2.5968,2.5848,2.5816,2.6025,2.6026,2.6027,2.6027,2.6028,2.6042,2.601,2.5994,2.5919,2.586,2.5858,2.5784,2.5794,2.5801,2.5768,2.5737,2.5738,2.5738,2.5754,2.5753,2.5752,2.5752,2.5752,2.5751,2.5914,2.5897,2.5834,2.5789,2.5756,2.5714,2.5691,2.5658,2.5623,2.5635,2.5635,2.5658,2.5837,2.5879,2.5744,2.5745,2.5746,2.5747,2.5747,2.5712,2.5759,2.5663,2.563,2.5576,2.5515,2.5529,2.5461,2.5435,2.5398,2.5429,2.5561,2.5575,2.559,2.5624,2.5431,2.5431,2.5431,2.5431,2.5601,2.561,2.5513,2.5459,2.5408,2.541,2.5298,2.5278,2.5265,2.5248,2.5279,2.5327,2.5342,2.5347,2.5367,2.5399,2.5152,2.5152,2.5152,2.5475,2.548,2.5383,2.5373,2.5331,2.5294,2.5187,2.5122,2.5117,2.5141,2.5235,2.5247,2.5325,2.5351,2.5373,2.5404,2.5464,0,0]}]]